Погода в Набережном

Россия / Республика Коми     65°07′39″N   57°02′31″E
темп.,
°C
ветер,
м/с
пор.,
м/с
влажн.,
%
обл.,
%
осадки,
мм/ч
давл.,
гПа
погр.,
м
19 апреля, пн
пн1900:00−10ссз23967 0.0 103868
03:00−11з019773 0.0 103814
06:00−7зюз238274 0.0 1037236
09:00−3зюз356681 0.0 1036958
12:000зюз465878 0.0 10341150
15:00+2зюз475986 0.0 10321000
18:00+1зюз4963100 0.0 1030315
21:00+1з5126999 0.0 1028448
20 апреля, вт
вт2000:000з41077100 0.0 1027340
03:00−1з4108188 0.0 1027329
06:00+1з4117924 0.0 1026524
09:00+4зсз587692 0.0 1026833
12:00+4сз4775100 0.0 1027898
15:00+5сз366821 0.0 1028717
18:00+2сз11885 0.0 102810
21:000зюз11935 0.0 102910
21 апреля, ср
ср2100:00−1юз11939 0.0 102912
03:00−1ююз22947 0.0 103031
06:00+2ю24855 0.0 1030124
09:00+6ю34725 0.0 1030465
12:00+9ююз34615 0.0 1029917
15:00+10ю355948 0.0 10281023
18:00+7ююв497463 0.0 1027246
21:00+4ююв4118797 0.0 1026220
22 апреля, чт
чт2200:00+3ююв4108877 0.0 1025216
03:00+3ююв51483100 0.0 1024332
06:00+5ююв6157399 0.0 1022508
09:00+8ю81458100 0.0 1021995
12:00+9ю81553100 0.0 10201329
15:00+8ююз81469100 0.1 10201442
18:00+6ю61289100 0.1 10191189
21:00+5ююз61196100 1.2 10191002
23 апреля, пт
пт2300:00+4ююз51097100 0.5 1018888
03:00+4ююз6118436 0.6 1019593
06:00+4ю61280100 0.0 1018753
09:00+4ю61292100 0.0 1018881
12:00+5ююз61297100 0.2 1018944
15:00+5юз7128977 0.3 1020889
18:00+6юз596999 0.1 1021722
21:00+3юз387949 0.1 1023196